ORBVIEW 2 (SEASTAR) 1 24883U 97037A 12136.39341702 .00000274 00000-0 11709-3 0 7311 2 24883 98.4137 255.8777 0001793 190.2101 169.9044 14.32449258785706 METEOSAT-7 1 24932U 97049B 12136.85254266 .00000055 00000-0 00000+0 0 1014 2 24932 7.6329 56.7624 0001018 18.1119 163.5463 1.00266885 53855 NOAA 15 1 25338U 98030A 12135.70627779 .00000285 00000-0 14042-3 0 2619 2 25338 98.6879 122.9337 0010058 201.4428 158.6316 14.25067003728085 NOAA 16 1 26536U 00055A 12135.75028349 .00000157 00000-0 10954-3 0 7467 2 26536 99.0973 177.3517 0010660 173.1538 186.9800 14.12735354600310 GOES 12 1 26871U 01031A 12135.36331116 -.00000296 00000-0 10000-3 0 5780 2 26871 2.1861 73.3172 0004081 8.7424 221.5798 1.00272950 39658 FENGYUN 1D 1 27431U 02024B 12136.95569661 .00000079 00000-0 69917-4 0 1517 2 27431 98.7611 104.5203 0014688 283.3567 76.5995 14.09359268514645 NOAA 17 1 27453U 02032A 12135.65706116 .00000138 00000-0 77163-4 0 7046 2 27453 98.3389 164.3849 0010704 254.1040 105.8951 14.24429760513980 METEOSAT-8 (MSG-1) 1 27509U 02040B 12137.10677131 .00000056 00000-0 00000+0 0 9214 2 27509 1.2929 59.2127 0002001 119.2449 103.4465 1.00276633 35668 KALPANA-1 (METSAT 1) 1 27525U 02043A 12136.99361867 -.00000085 00000-0 10000-3 0 4647 2 27525 2.7930 70.7021 0003450 228.0948 7.0066 1.00272108 35464 INSAT-3A 1 27714U 03013A 12136.56125539 -.00000268 00000-0 10000-3 0 1136 2 27714 0.0822 85.2435 0002352 296.8737 147.1804 1.00271540 33366 FENGYUN 2C 1 28451U 04042A 12136.63622889 -.00000365 00000-0 10000-3 0 4047 2 28451 3.9009 66.4681 0000828 226.5240 293.4611 1.00274193 27713 HIMAWARI-6 (MTSAT-1R) 1 28622U 05006A 12133.50260019 -.00000298 00000-0 10000-3 0 6782 2 28622 0.0136 330.2001 0000303 358.0772 223.3450 1.00269777 26386 NOAA 18 1 28654U 05018A 12135.68210212 -.00000017 00000-0 15721-4 0 1792 2 28654 99.0436 93.4960 0013349 248.5724 111.4012 14.11646351359831 METEOSAT-9 (MSG-2) 1 28912U 05049B 12137.16356409 -.00000012 00000-0 10000-3 0 986 2 28912 0.4616 26.1683 0005717 342.1501 284.6381 1.00275095 23515 MTSAT-2 1 28937U 06004A 12136.26603734 -.00000253 00000-0 10000-3 0 1732 2 28937 0.0463 85.7979 0002857 331.1259 57.2757 1.00271693 22898 FORMOSAT-3 FM6 1 29047U 06011A 12136.77872972 .00000069 00000-0 44085-4 0 8025 2 29047 71.9809 16.0704 0051079 115.2565 245.3871 14.27447813319478 FORMOSAT-3 FM1 1 29048U 06011B 12135.88109374 .00000392 00000-0 17471-3 0 8865 2 29048 71.9690 292.1049 0044055 67.8901 292.6895 14.27459137321823 FORMOSAT-3 FM5 1 29049U 06011C 12136.52016077 .00000364 00000-0 16364-3 0 8279 2 29049 72.0187 85.8131 0034660 121.9515 238.5003 14.27469684317698 FORMOSAT-3 FM3 1 29050U 06011D 12136.79376648 .00001129 00000-0 26646-3 0 1472 2 29050 72.0170 165.5390 0054941 284.0071 75.4962 14.55252212325887 FORMOSAT-3 FM4 1 29051U 06011E 12136.97481715 .00000375 00000-0 16522-3 0 8814 2 29051 72.0079 352.1010 0069185 349.7110 10.2600 14.27477462320345 FORMOSAT-3 FM2 1 29052U 06011F 12137.14826378 .00000363 00000-0 16273-3 0 9027 2 29052 72.0343 57.1821 0040001 86.9082 273.6630 14.27517009318679 GOES 13 1 29155U 06018A 12134.36671773 -.00000265 00000-0 10000-3 0 672 2 29155 0.2508 251.1437 0005351 169.2043 228.0742 1.00279511 21892 METOP-A 1 29499U 06044A 12137.17076812 -.00000045 00000-0 -66514-6 0 7350 2 29499 98.7014 196.8578 0002264 115.9001 244.2429 14.21488141289177 FENGYUN 2D 1 29640U 06053A 12136.57665554 -.00000201 00000-0 10000-3 0 4219 2 29640 2.2900 75.4627 0002340 19.7539 72.1342 1.00265200 19960 FENGYUN 3A 1 32958U 08026A 12137.09354825 .00000070 00000-0 53304-4 0 8796 2 32958 98.6459 206.3538 0000868 29.8074 330.3158 14.19730123205730 NOAA 19 1 33591U 09005A 12135.75341258 .00000378 00000-0 23318-3 0 3714 2 33591 98.8622 75.9594 0014940 113.8968 246.3772 14.11335097168292 GOES 14 1 35491U 09033A 12135.41465726 -.00000098 00000-0 00000+0 0 4604 2 35491 0.1386 91.3292 0006667 354.3587 190.5261 1.00272189 10575 METEOR-M 1 1 35865U 09049A 12137.13086277 -.00000023 00000-0 94256-5 0 4113 2 35865 98.6565 192.0528 0002937 129.6881 230.4560 14.21861665138047 GOES 15 1 36411U 10008A 12135.71268287 .00000078 00000-0 10000-3 0 706 2 36411 0.1948 76.0254 0001032 9.5249 268.4443 1.00269024 8078 COMS 1 1 36744U 10032A 12136.42795521 -.00000354 00000-0 10000-3 0 3708 2 36744 0.0451 78.0374 0001059 4.3588 73.3627 1.00271220 7053 FENGYUN 3B 1 37214U 10059A 12137.19233792 .00000115 00000-0 74952-4 0 6807 2 37214 98.7576 79.4859 0001866 106.0729 254.0660 14.19768151 79247 ELEKTRO-L 1 (GOMS 2) 1 37344U 11001A 12136.60718659 -.00000107 00000-0 10000-3 0 3446 2 37344 0.0608 197.9382 0003911 260.4267 69.9730 1.00275074 4887 SUOMI NPP 1 37849U 11061A 12137.16954259 -.00000010 00000-0 16036-4 0 1786 2 37849 98.7141 75.1795 0001736 96.4012 263.7371 14.19563560 28498 FENGYUN 2F 1 38049U 12002A 12136.59913023 -.00000368 00000-0 10000-3 0 964 2 38049 2.1301 277.7834 0006387 251.7445 31.7111 1.00286583 1292